Vorticity
nan nan nan nan nan nan nan nan nan nan nan nan nan nan nan nan nan nan nan nan nan nan nan nan nan nan nan nan nan nan nan nan nan
nan 6 6 5 9 10 7 8 8 8 6 5 5 7 7 8 7 7 8 11 11 7 7 6 6 7 5 4 4 4 4 5 nan
nan 6 8 7 7 10 9 8 9 9 8 7 6 6 7 8 6 8 11 11 8 7 8 10 9 5 4 5 4 4 4 5 nan
nan 9 8 9 6 6 10 9 8 10 10 9 7 6 7 6 6 5 9 13 10 7 7 6 9 8 6 5 4 5 5 5 nan
nan 11 12 10 9 7 7 8 8 8 10 10 9 7 8 7 7 9 9 9 8 8 7 3 5 8 5 5 5 5 5 5 nan
nan 3 10 14 12 13 12 10 10 10 9 10 10 9 8 8 7 7 9 12 7 6 6 4 5 8 5 5 6 6 4 5 nan
nan 5 4 5 8 11 12 15 15 10 8 8 11 10 8 8 7 7 11 9 8 6 4 6 6 6 8 6 6 6 5 5 nan
nan 6 5 5 6 7 6 10 12 11 9 6 8 9 10 8 9 9 10 9 8 5 5 6 6 4 8 8 6 5 6 6 nan
nan 8 7 7 6 7 8 7 7 9 11 9 6 7 7 7 9 9 15 18 13 12 9 1 1 8 7 7 7 7 7 6 nan
nan 8 8 7 8 8 7 8 8 7 8 13 10 6 7 8 7 6 10 13 13 16 17 13 7 -2 2 10 9 8 9 8 nan
nan 8 8 8 9 9 9 7 7 8 8 7 9 11 10 10 6 6 5 7 4 4 8 11 13 15 9 0 4 9 10 10 nan
nan 8 8 9 7 8 9 8 9 8 8 7 9 7 7 8 9 9 7 7 9 3 1 2 2 4 8 9 8 8 8 8 nan
nan 8 7 7 8 8 8 8 8 8 8 8 8 7 9 9 10 7 6 8 11 12 9 3 2 -0 -0 -1 2 8 10 9 nan
nan 7 8 8 8 8 9 9 8 7 7 9 10 8 8 11 13 14 14 13 11 15 19 19 15 9 2 2 1 2 4 3 nan
nan 7 8 9 8 7 9 8 9 7 8 10 9 11 13 12 12 12 11 12 13 13 14 17 17 25 27 20 15 7 0 2 nan
nan 9 8 9 8 8 9 8 6 6 12 12 8 10 6 8 10 7 7 7 7 9 11 10 10 9 11 14 26 32 20 8 nan
nan 9 8 9 8 7 8 10 10 6 8 14 10 8 4 2 6 8 7 8 7 5 8 8 11 11 1 -2 2 21 35 23 nan
nan 9 9 9 8 8 7 8 10 9 8 9 11 9 8 7 4 6 7 7 9 8 6 6 7 9 7 3 2 9 20 29 nan
nan 9 9 9 8 8 9 9 9 9 9 6 7 10 10 10 8 5 5 6 7 8 7 7 6 8 7 1 3 10 9 14 nan
nan nan nan nan nan nan nan nan nan nan nan nan nan nan nan nan nan nan nan nan nan nan nan nan nan nan nan nan nan nan nan nan nan
CAPE
147 311 571 901 1186 912 772 1270 1263 1149 1054 1043 995 1068 1279 899 239 159 124 263 1022 1009 1030 1156 883 924 1130 1002 827 613 436 290 179
3 11 205 400 999 1160 974 1156 1250 1104 1136 1106 1042 1432 925 404 98 103 221 241 974 1017 754 987 872 947 955 800 636 368 249 114 138
0 0 66 353 733 928 1012 1170 1143 1152 1077 1182 1272 1187 719 265 69 106 135 406 908 809 836 738 687 912 978 753 533 325 196 47 59
0 0 80 206 348 679 924 1061 1045 926 1043 1169 1291 1130 847 249 138 281 299 378 679 786 732 348 270 707 667 545 584 390 222 0 91
0 0 1 12 96 268 454 833 834 1113 971 1132 965 891 724 365 189 199 222 675 723 618 469 190 16 260 737 955 932 688 486 53 214
0 0 45 224 266 458 399 616 800 744 571 468 627 742 419 313 224 172 231 968 801 621 476 570 670 1073 948 1020 1051 899 480 112 251
0 0 4 7 8 151 397 540 773 281 351 280 304 213 302 303 279 234 371 885 889 888 875 556 507 455 522 991 733 569 565 324 564
0 1 2 5 0 0 24 111 141 185 169 304 233 286 230 201 273 357 353 574 669 882 1092 535 439 328 405 817 513 551 584 557 617
0 0 0 0 0 0 0 0 8 81 118 178 122 195 175 201 144 185 51 320 614 800 577 417 252 288 345 363 582 470 447 429 450
0 0 0 0 0 0 0 0 0 1 42 56 28 23 96 173 107 80 8 37 123 338 376 284 254 137 110 331 424 530 526 352 518
0 0 0 0 0 0 0 0 0 1 0 1 18 84 53 85 116 108 50 71 66 98 196 161 114 153 165 129 297 463 533 317 371
0 0 0 0 0 0 0 0 0 0 0 0 0 0 6 56 120 72 76 85 79 93 121 144 194 215 149 160 223 163 295 473 383
0 0 0 0 0 0 0 0 0 0 0 0 0 0 0 13 85 50 14 104 111 110 191 230 236 239 217 234 257 204 281 343 250
0 0 0 0 0 0 0 0 0 0 0 0 0 0 0 0 11 89 83 60 59 115 122 120 189 230 190 169 248 223 217 236 163
0 0 0 0 0 0 0 0 0 0 0 0 0 0 0 1 2 3 2 3 3 3 7 2 4 23 161 188 245 200 172 162 191
0 0 0 0 0 0 0 0 0 0 0 0 0 0 0 0 3 1 1 1 3 2 3 4 12 5 8 8 6 84 261 213 233
0 0 0 0 0 0 0 0 0 0 0 1 0 0 0 0 0 1 0 2 1 3 2 3 4 6 4 8 13 12 5 20 122
0 0 0 0 0 0 0 0 0 0 0 0 1 1 0 0 7 1 0 0 1 3 2 1 2 2 4 2 3 8 14 34 104
0 0 0 0 0 0 0 0 0 0 0 0 0 0 1 8 1 1 0 0 0 0 2 1 1 2 3 2 4 13 7 25 78
0 0 0 0 0 0 0 0 0 0 0 0 0 0 0 0 3 2 1 0 0 0 0 2 1 0 0 1 2 8 18 26 34